Cincinnati, OH

9:47 AM EDT on April 20, 2018 (GMT -0400)
Cincinnati Municipal-Lunken

Weather History for KLUK - October, 2012

Change the Weather History Date:

Friday, October 5, 2012

  Actual Average Record
Temperature  
Mean Temperature 60 °F -  
Max Temperature 77 °F 71 °F 90 °F (1951)
Min Temperature 46 °F 47 °F 32 °F (1965)
Degree Days  
Heating Degree Days 4    
Growing Degree Days 10 (Base 50)    
Moisture  
Dew Point 54 °F    
Average Humidity 88    
Maximum Humidity 100    
Minimum Humidity 57    
Precipitation  
Precipitation 0.05 in - - ()
Sea Level Pressure  
Sea Level Pressure 30.11 in    
Wind  
Wind Speed 2 mph (WNW)    
Max Wind Speed 14 mph    
Max Gust Speed 21 mph    
Visibility 5 miles    
Events Fog , Rain    
Averages and records for this station are not official NWS values.
T = Trace of Precipitation, MM = Missing Value Source: NWS Daily Summary

Daily Weather History Graph

Daily Weather History Graph

Search for Another Location

Airport or City:

Astronomy

Oct. 05, 2012 Rise Set
Actual Time 7:37 AM EDT 7:13 PM EDT
Civil Twilight 7:11 AM EDT 7:39 PM EDT
Nautical Twilight 6:40 AM EDT 8:10 PM EDT
Astronomical Twilight 6:09 AM EDT 8:41 PM EDT
Moon 10:38 PM EDT (10/5) 12:42 PM EDT (10/5)
Length of Visible Light 12h 28m
Length of Day
11h 35m
Waning Gibbous, 74% of the Moon is Illuminated
Oct 5
Waning Gibbous
Oct 8
Last Quarter
Oct 15
New
Oct 21
First Quarter
Oct 29
Full

Hourly Weather History & Observations

Time (EDT) Temp. Windchill Dew Point Humidity Pressure Visibility Wind Dir Wind Speed Gust Speed Precip Events Conditions
12:53 AM 55.9 °F - 54.0 °F 93% 30.15 in 6.0 mi Calm Calm - N/A   Clear
1:53 AM 55.9 °F - 54.0 °F 93% 30.15 in 6.0 mi Calm Calm - N/A   Clear
2:53 AM 54.0 °F - 52.0 °F 93% 30.15 in 4.0 mi Calm Calm - N/A   Clear
3:12 AM 53.6 °F - 51.8 °F 94% 30.15 in 3.0 mi Calm Calm - N/A   Partly Cloudy
3:25 AM 55.4 °F - 53.6 °F 94% 30.14 in 2.5 mi Calm Calm - N/A   Clear
3:35 AM 55.4 °F - 53.6 °F 94% 30.14 in 6.0 mi Calm Calm - N/A   Clear
3:53 AM 55.4 °F - 53.6 °F 94% 30.14 in 2.0 mi Calm Calm - N/A   Clear
4:10 AM 53.6 °F - 51.8 °F 94% 30.14 in 0.8 mi NE 3.5 mph - N/A   Clear
4:24 AM 53.6 °F - 53.6 °F 100% 30.14 in 1.0 mi Calm Calm - N/A   Clear
4:32 AM 55.4 °F - 53.6 °F 94% 30.14 in 3.0 mi Calm Calm - N/A   Clear
4:45 AM 55.4 °F - 53.6 °F 94% 30.14 in 1.5 mi Calm Calm - N/A   Partly Cloudy
4:47 AM 55.4 °F - 53.6 °F 94% 30.14 in 0.8 mi Calm Calm - N/A   Mist
4:53 AM 54.0 °F - 53.1 °F 97% 30.13 in 0.2 mi Calm Calm - N/A Fog Fog
5:00 AM 53.6 °F - 53.6 °F 100% 30.14 in 0.5 mi Calm Calm - N/A Fog Fog
5:05 AM 53.6 °F - 53.6 °F 100% 30.14 in 0.2 mi Calm Calm - N/A Fog Fog
5:44 AM 51.8 °F - 51.8 °F 100% 30.14 in 1.2 mi Calm Calm - N/A   Partly Cloudy
5:47 AM 53.6 °F - 51.8 °F 94% 30.14 in 3.0 mi Calm Calm - N/A   Partly Cloudy
5:50 AM 53.6 °F - 51.8 °F 94% 30.14 in 1.8 mi Calm Calm - N/A   Partly Cloudy
5:53 AM 54.0 °F - 52.0 °F 93% 30.14 in 1.8 mi Calm Calm - N/A   Partly Cloudy
6:03 AM 51.8 °F - 51.8 °F 100% 30.14 in 0.5 mi Calm Calm - N/A Fog Fog
6:14 AM 53.6 °F - 51.8 °F 94% 30.14 in 1.0 mi Calm Calm - N/A   Clear
6:21 AM 55.4 °F - 53.6 °F 94% 30.14 in 3.0 mi Calm Calm - N/A   Clear
6:31 AM 55.4 °F - 55.4 °F 100% 30.14 in 1.8 mi Calm Calm - N/A   Clear
6:39 AM 53.6 °F - 53.6 °F 100% 30.14 in 1.0 mi Calm Calm - N/A   Mist
6:48 AM 55.4 °F - 53.6 °F 94% 30.15 in 1.5 mi Calm Calm - N/A   Clear
6:53 AM 55.0 °F - 54.0 °F 96% 30.14 in 3.0 mi Calm Calm - N/A   Partly Cloudy
7:03 AM 53.6 °F - 51.8 °F 94% 30.15 in 1.0 mi Calm Calm - N/A   Mist
7:05 AM 51.8 °F - 51.8 °F 100% 30.15 in 3.0 mi Calm Calm - N/A   Partly Cloudy
7:53 AM 54.0 °F - 53.1 °F 97% 30.15 in 6.0 mi Calm Calm - N/A Fog Patches of Fog
8:53 AM 57.9 °F - 57.0 °F 97% 30.13 in 6.0 mi Calm Calm - N/A Fog Patches of Fog
9:53 AM 64.0 °F - 60.1 °F 87% 30.12 in 8.0 mi South 4.6 mph - N/A   Clear
10:53 AM 66.9 °F - 60.1 °F 79% 30.12 in 10.0 mi South 4.6 mph - N/A   Clear
11:53 AM 70.0 °F - 59.0 °F 68% 30.12 in 10.0 mi Calm Calm - N/A   Clear
12:53 PM 73.0 °F - 60.1 °F 64% 30.10 in 10.0 mi West 9.2 mph - N/A   Mostly Cloudy
1:53 PM 73.0 °F - 59.0 °F 61% 30.08 in 10.0 mi WSW 6.9 mph - N/A   Mostly Cloudy
2:53 PM 75.0 °F - 59.0 °F 57% 30.03 in 10.0 mi SW 9.2 mph - N/A   Scattered Clouds
3:53 PM 73.9 °F - 59.0 °F 59% 30.00 in 10.0 mi SW 11.5 mph - N/A   Mostly Cloudy
4:53 PM 75.0 °F - 59.0 °F 57% 29.99 in 10.0 mi WSW 10.4 mph - N/A   Mostly Cloudy
5:53 PM 73.0 °F - 57.0 °F 57% 29.99 in 10.0 mi WSW 11.5 mph 18.4 mph N/A   Overcast
6:53 PM 68.0 °F - 55.9 °F 65% 29.98 in 10.0 mi NNW 12.7 mph 18.4 mph N/A   Overcast
7:53 PM 64.0 °F - 55.0 °F 73% 29.99 in 10.0 mi NNW 13.8 mph - 0.00 in   Overcast
8:53 PM 55.0 °F - 50.0 °F 83% 30.04 in 10.0 mi North 11.5 mph 17.3 mph 0.00 in Rain Light Rain
9:53 PM 50.0 °F - 46.0 °F 86% 30.03 in 10.0 mi North 10.4 mph - 0.00 in Rain Light Rain
10:53 PM 48.9 °F - 45.0 °F 86% 30.02 in 10.0 mi NNE 10.4 mph 16.1 mph 0.00 in Rain Light Rain
11:45 PM 46.4 °F 41.5 °F 42.8 °F 87% 30.06 in 4.0 mi NNE 10.4 mph 20.7 mph 0.05 in Rain Rain
11:53 PM 46.0 °F 41.4 °F 42.1 °F 86% 30.07 in 9.0 mi North 9.2 mph - 0.05 in Rain Light Rain